Simultaneous Nadir Overpasses (SNOs) Predictions

Prediction of SNOs between AQUA and METOP-B Satellite Orbit:

Table of predicted SNOs for the next 14.0 days since TLE Epoch: 2/2/2013
Index Date (AQUA) Time (AQUA) Lat,Lon (AQUA) SZA (AQUA ) Date (METOP-B) Time (METOP-B) Lat,Lon (METOP-B) SZA (METOP-B ) Distance(km) Time Diff (sec)
1 02/02/2013 12:44:02 -73.71, 163.41 89.52 02/02/2013 12:43:21 -73.70, 163.37 89.53 2.18 41
2 02/02/2013 13:33:31 73.79, -29.14 90.56 02/02/2013 13:34:00 73.77, -29.12 90.54 2.53 29
3 02/05/2013 08:18:15 -73.71,-130.15 90.36 02/05/2013 08:17:44 -73.70,-130.22 90.36 2.87 31
4 02/05/2013 09:07:44 73.80, 37.30 89.73 02/05/2013 09:08:23 73.77, 37.29 89.70 3.02 39
5 02/08/2013 03:52:28 -73.72, -63.71 91.22 02/08/2013 03:52:07 -73.74, -63.71 91.20 2.15 21
6 02/08/2013 04:41:57 73.81, 103.73 88.87 02/08/2013 04:42:46 73.81, 103.79 88.86 2.11 49
7 02/10/2013 22:37:08 73.41,-164.24 87.55 02/10/2013 22:35:58 73.31,-165.61 87.53 44.91 70
8 02/10/2013 23:26:40 -73.73, 2.71 92.11 02/10/2013 23:26:31 -73.72, 2.66 92.12 1.97 9
9 02/11/2013 00:16:08 73.78, 170.26 87.93 02/11/2013 00:17:10 73.79, 170.16 87.94 3.56 62
10 02/13/2013 18:11:23 73.70, -98.38 86.92 02/13/2013 18:10:13 73.69, -98.34 86.93 1.60 70
11 02/13/2013 19:00:50 -73.76, 69.13 93.03 02/13/2013 19:00:53 -73.75, 69.13 93.04 0.68 3




NCC Satellite Simultaneous Nadir Overpasses (SNOs) Prediction Service
